Flag for U.S.A. Weather past 2 weeks in Grand Rapids, Michigan, U.S.A.

Now
47 °F

Light rain. Mostly cloudy.


Feels Like: 42 °F
Forecast: 41 / 51 °F
Wind: 9 mph from North

Location: Kent County International Airport

Current Time: Oct 21, 2014 at 8:59:12 AM

Latest Report: Oct 21, 2014 at 7:53 AM


Visibility: 10 mi

Pressure: 30.04 "Hg

Humidity: 90%

Dew point: 44 °F

Location of Grand RapidsLocation

Historic Weather in Grand Rapids — Graph

°F

Grand Rapids temperature yesterday

Maximum temperature yesterday: 63 °F (at 2:53 PM)
Minimum temperature yesterday: 47 °F (at 7:53 AM)
Average temperature yesterday: 53 °F

Past Weeks' High & Low Weather Summary

 TemperatureHumidityPressure
High71 °F (Oct 13, 11:53 PM)100% (Oct 13, 8:53 AM)30.27 "Hg (Oct 13, 8:53 AM)
Low30 °F (Oct 19, 7:53 AM)36% (Oct 11, 4:53 PM)29.51 "Hg (Oct 17, 10:53 AM)
Average52 °F79%29.88 "Hg
* Reported Oct 6 7:53 AM — Oct 21 7:53 AM, Grand Rapids, Weather by CustomWeather, © 2014

Note: Actual official high and low records may vary slightly from our data, if they occured in-between our weather recording intervals... More about our weather records

Advertising

Grand Rapids weather history for previous 24 hours

 ConditionsComfort  
Time TempWeatherWind HumidityBarometerVisibility
7:53 AM
Oct 21
47 °FLight rain. Mostly cloudy.9 mph90%30.04 "Hg10 mi
6:53 AM47 °FLight rain. Overcast.9 mph86%30.01 "Hg10 mi
5:53 AM47 °FLight rain. Overcast.10 mph86%29.99 "Hg10 mi
4:53 AM47 °FOvercast.9 mph83%29.97 "Hg10 mi
4:00 AM47 °FOvercast.10 mph83%29.96 "Hg10 mi
2:53 AM48 °FOvercast.8 mph83%29.95 "Hg10 mi
1:53 AM48 °FMostly cloudy.10 mph80%29.95 "Hg10 mi
12:53 AM48 °FMostly cloudy.13 mph86%29.94 "Hg10 mi
11:53 PM
Oct 20
48 °FPartly cloudy.10 mph83%29.95 "Hg10 mi
10:53 PM49 °FMostly cloudy.10 mph80%29.95 "Hg10 mi
9:53 PM50 °FOvercast.13 mph77%29.94 "Hg10 mi
8:53 PM51 °FOvercast.10 mph74%29.93 "Hg10 mi
7:53 PM52 °FOvercast.14 mph75%29.90 "Hg10 mi
6:53 PM56 °FOvercast.14 mph67%29.87 "Hg10 mi
5:53 PM57 °FOvercast.12 mph67%29.84 "Hg10 mi
4:53 PM59 °FCloudy.15 mph64%29.81 "Hg10 mi
3:53 PM61 °FMore clouds than sun.13 mph62%29.79 "Hg10 mi
2:53 PM63 °FPartly sunny.6 mph65%29.78 "Hg10 mi
1:53 PM61 °FScattered clouds.8 mph67%29.79 "Hg10 mi
12:53 PM57 °FPartly sunny.10 mph74%29.80 "Hg10 mi
11:53 AM54 °FOvercast.8 mph80%29.82 "Hg10 mi
10:53 AM53 °FPartly sunny.8 mph80%29.82 "Hg10 mi
9:53 AM51 °FPassing clouds.12 mph83%29.81 "Hg10 mi
8:53 AM48 °FPassing clouds.8 mph86%29.82 "Hg9 mi
Weather by CustomWeather, © 2014

See weather overviewHow to use our weather pages